Time,TemperatureF,DewpointF,PressureIn,WindDirection,WindDirectionDegrees,WindSpeedMPH,WindSpeedGustMPH,Humidity,HourlyPrecipIn,Conditions,Clouds,dailyrainin,SoftwareType,DateUTC
2013-08-28 00:01:00,79.0,71.9,16.98,WSW,254,0.0,1.0,79,0.00,,,0.00,VWS V13.01,2013-08-28 04:01:00,
2013-08-28 00:06:00,79.0,71.6,16.98,WSW,253,0.0,1.0,78,0.00,,,0.00,VWS V13.01,2013-08-28 04:06:00,
2013-08-28 00:11:00,79.1,72.0,16.98,WSW,252,0.0,2.0,79,0.00,,,0.00,VWS V13.01,2013-08-28 04:11:00,
2013-08-28 00:16:00,79.0,71.6,16.98,WSW,252,0.0,2.0,78,0.00,,,0.00,VWS V13.01,2013-08-28 04:16:00,
2013-08-28 00:21:00,78.9,71.5,16.98,WSW,253,0.0,2.0,78,0.00,,,0.00,VWS V13.01,2013-08-28 04:21:00,
2013-08-28 00:26:00,78.9,71.5,16.98,SSW,208,0.0,4.0,78,0.00,,,0.00,VWS V13.01,2013-08-28 04:26:00,
2013-08-28 00:31:00,78.7,71.3,16.98,SSW,194,0.0,3.0,78,0.00,,,0.00,VWS V13.01,2013-08-28 04:31:00,
2013-08-28 00:36:00,78.7,71.3,16.98,SSW,194,0.0,0.0,78,0.00,,,0.00,VWS V13.01,2013-08-28 04:36:00,
2013-08-28 00:41:00,78.7,71.3,16.98,South,183,2.0,4.0,78,0.00,,,0.00,VWS V13.01,2013-08-28 04:41:00,
2013-08-28 00:46:00,78.7,71.3,16.91,SSE,167,0.0,4.0,78,0.00,,,0.00,VWS V13.01,2013-08-28 04:46:00,
2013-08-28 00:47:00,78.7,71.3,16.91,SSE,167,0.0,4.0,78,0.00,,,0.00,VWS V13.01,2013-08-28 04:47:00,
2013-08-28 00:52:00,78.5,71.4,16.91,South,175,2.0,3.0,79,0.00,,,0.00,VWS V13.01,2013-08-28 04:52:00,
2013-08-28 00:57:00,78.4,71.0,16.91,South,174,0.0,2.0,78,0.00,,,0.00,VWS V13.01,2013-08-28 04:57:00,
2013-08-28 01:02:00,78.1,70.7,16.91,South,173,0.0,2.0,78,0.00,,,0.00,VWS V13.01,2013-08-28 05:02:00,
2013-08-28 01:07:00,78.0,71.0,16.91,South,173,0.0,2.0,79,0.00,,,0.00,VWS V13.01,2013-08-28 05:07:00,
2013-08-28 01:12:00,77.9,70.9,16.91,South,173,0.0,1.0,79,0.00,,,0.00,VWS V13.01,2013-08-28 05:12:00,
2013-08-28 01:17:00,77.7,70.7,16.91,South,173,0.0,0.0,79,0.00,,,0.00,VWS V13.01,2013-08-28 05:17:00,
2013-08-28 01:22:00,77.5,70.8,16.91,South,173,0.0,0.0,80,0.00,,,0.00,VWS V13.01,2013-08-28 05:22:00,
2013-08-28 01:27:00,77.3,70.7,16.91,South,173,0.0,0.0,80,0.00,,,0.00,VWS V13.01,2013-08-28 05:27:00,
2013-08-28 01:32:00,77.0,70.4,16.91,South,173,0.0,0.0,80,0.00,,,0.00,VWS V13.01,2013-08-28 05:32:00,
2013-08-28 01:37:00,76.8,70.5,16.91,South,173,0.0,0.0,81,0.00,,,0.00,VWS V13.01,2013-08-28 05:37:00,
2013-08-28 01:42:00,76.7,70.4,16.91,South,173,0.0,0.0,81,0.00,,,0.00,VWS V13.01,2013-08-28 05:42:00,
2013-08-28 01:47:00,76.7,70.4,16.91,South,173,0.0,0.0,81,0.00,,,0.00,VWS V13.01,2013-08-28 05:47:00,
2013-08-28 01:52:00,76.7,70.4,16.91,South,173,0.0,1.0,81,0.00,,,0.00,VWS V13.01,2013-08-28 05:52:00,
2013-08-28 01:57:00,76.8,70.9,16.91,South,173,0.0,1.0,82,0.00,,,0.00,VWS V13.01,2013-08-28 05:57:00,
2013-08-28 02:02:00,76.8,70.5,16.91,South,173,0.0,1.0,81,0.00,,,0.00,VWS V13.01,2013-08-28 06:02:00,
2013-08-28 02:07:00,76.9,70.6,16.91,South,174,0.0,0.0,81,0.00,,,0.00,VWS V13.01,2013-08-28 06:07:00,
2013-08-28 02:12:00,76.9,70.6,16.91,South,178,1.0,2.0,81,0.00,,,0.00,VWS V13.01,2013-08-28 06:12:00,
2013-08-28 02:17:00,77.1,70.8,16.91,SW,236,0.0,3.0,81,0.00,,,0.00,VWS V13.01,2013-08-28 06:17:00,
2013-08-28 02:22:00,77.2,70.6,16.91,WSW,240,0.0,3.0,80,0.00,,,0.00,VWS V13.01,2013-08-28 06:22:00,
2013-08-28 02:27:00,77.1,70.5,16.91,WSW,240,0.0,1.0,80,0.00,,,0.00,VWS V13.01,2013-08-28 06:27:00,
2013-08-28 02:32:00,76.9,70.6,16.91,WSW,240,0.0,1.0,81,0.00,,,0.00,VWS V13.01,2013-08-28 06:32:00,
2013-08-28 02:37:00,76.7,70.8,16.91,WSW,240,0.0,2.0,82,0.00,,,0.00,VWS V13.01,2013-08-28 06:37:00,
2013-08-28 02:42:00,76.5,70.2,16.91,WSW,240,0.0,0.0,81,0.00,,,0.00,VWS V13.01,2013-08-28 06:42:00,
2013-08-28 02:47:00,76.4,70.5,16.91,WSW,240,0.0,0.0,82,0.00,,,0.00,VWS V13.01,2013-08-28 06:47:00,
2013-08-28 02:52:00,76.3,70.4,16.91,WSW,240,0.0,1.0,82,0.00,,,0.00,VWS V13.01,2013-08-28 06:52:00,
2013-08-28 02:57:00,76.3,70.4,16.91,WSW,240,0.0,1.0,82,0.00,,,0.00,VWS V13.01,2013-08-28 06:57:00,
2013-08-28 03:02:00,76.5,70.6,16.91,WSW,242,2.0,3.0,82,0.00,,,0.00,VWS V13.01,2013-08-28 07:02:00,
2013-08-28 03:07:00,76.7,70.4,16.91,WSW,242,0.0,2.0,81,0.00,,,0.00,VWS V13.01,2013-08-28 07:07:00,
2013-08-28 03:12:00,76.8,70.2,16.91,WSW,246,1.0,3.0,80,0.00,,,0.00,VWS V13.01,2013-08-28 07:12:00,
2013-08-28 03:17:00,76.9,70.3,16.91,WSW,249,0.0,4.0,80,0.00,,,0.00,VWS V13.01,2013-08-28 07:17:00,
2013-08-28 03:22:00,77.0,70.4,16.91,WSW,249,1.0,2.0,80,0.00,,,0.00,VWS V13.01,2013-08-28 07:22:00,
2013-08-28 03:27:00,77.0,70.4,16.91,WSW,248,0.0,2.0,80,0.00,,,0.00,VWS V13.01,2013-08-28 07:27:00,
2013-08-28 03:32:00,77.1,70.1,16.91,WSW,248,0.0,2.0,79,0.00,,,0.00,VWS V13.01,2013-08-28 07:32:00,
2013-08-28 03:37:00,77.1,70.1,19.46,WSW,248,0.0,2.0,79,0.00,,,0.00,VWS V13.01,2013-08-28 07:37:00,
2013-08-28 03:42:00,77.1,70.1,19.46,WSW,247,0.0,3.0,79,0.00,,,0.00,VWS V13.01,2013-08-28 07:42:00,
2013-08-28 03:47:00,77.1,70.5,19.46,WSW,247,0.0,1.0,80,0.00,,,0.00,VWS V13.01,2013-08-28 07:47:00,
2013-08-28 03:52:00,77.0,70.4,19.46,WSW,247,0.0,1.0,80,0.00,,,0.00,VWS V13.01,2013-08-28 07:52:00,
2013-08-28 03:57:00,76.9,70.3,19.46,WSW,246,1.0,2.0,80,0.00,,,0.00,VWS V13.01,2013-08-28 07:57:00,
2013-08-28 04:02:00,76.9,70.6,19.46,WSW,248,0.0,3.0,81,0.00,,,0.00,VWS V13.01,2013-08-28 08:02:00,
2013-08-28 04:07:00,76.9,70.3,19.46,WSW,248,0.0,1.0,80,0.00,,,0.00,VWS V13.01,2013-08-28 08:07:00,
2013-08-28 04:12:00,76.8,70.2,19.46,WSW,248,0.0,2.0,80,0.00,,,0.00,VWS V13.01,2013-08-28 08:12:00,
2013-08-28 04:17:00,76.8,70.5,19.46,WSW,246,0.0,0.0,81,0.00,,,0.00,VWS V13.01,2013-08-28 08:17:00,
2013-08-28 04:22:00,76.7,70.4,19.46,WSW,247,1.0,1.0,81,0.00,,,0.00,VWS V13.01,2013-08-28 08:22:00,
2013-08-28 04:27:00,76.5,70.2,19.46,WSW,247,1.0,2.0,81,0.00,,,0.00,VWS V13.01,2013-08-28 08:27:00,
2013-08-28 04:32:00,76.5,70.2,19.46,WSW,248,0.0,2.0,81,0.00,,,0.00,VWS V13.01,2013-08-28 08:32:00,
2013-08-28 04:37:00,76.6,70.3,19.46,WSW,247,0.0,1.0,81,0.00,,,0.00,VWS V13.01,2013-08-28 08:37:00,
2013-08-28 04:42:00,76.6,70.3,19.46,WSW,247,0.0,1.0,81,0.00,,,0.00,VWS V13.01,2013-08-28 08:42:00,
2013-08-28 04:47:00,76.7,70.4,19.46,WSW,246,0.0,2.0,81,0.00,,,0.00,VWS V13.01,2013-08-28 08:47:00,
2013-08-28 04:52:00,76.7,70.4,19.46,WSW,254,0.0,3.0,81,0.00,,,0.00,VWS V13.01,2013-08-28 08:52:00,
2013-08-28 04:57:00,76.7,70.8,19.46,WSW,258,1.0,4.0,82,0.00,,,0.00,VWS V13.01,2013-08-28 08:57:00,
2013-08-28 05:02:00,76.8,70.5,19.46,WSW,258,0.0,2.0,81,0.00,,,0.00,VWS V13.01,2013-08-28 09:02:00,
2013-08-28 05:07:00,76.7,70.4,19.46,WSW,258,0.0,0.0,81,0.00,,,0.00,VWS V13.01,2013-08-28 09:07:00,
2013-08-28 05:12:00,76.6,70.3,19.46,WSW,257,0.0,0.0,81,0.00,,,0.00,VWS V13.01,2013-08-28 09:12:00,
2013-08-28 05:17:00,76.5,70.2,19.46,WSW,258,0.0,0.0,81,0.00,,,0.00,VWS V13.01,2013-08-28 09:17:00,
2013-08-28 05:22:00,76.4,70.1,19.46,WSW,257,0.0,0.0,81,0.00,,,0.00,VWS V13.01,2013-08-28 09:22:00,
2013-08-28 05:27:00,76.4,70.5,19.46,WSW,257,0.0,0.0,82,0.00,,,0.00,VWS V13.01,2013-08-28 09:27:00,
2013-08-28 05:32:00,76.2,70.3,19.46,WSW,257,0.0,2.0,82,0.00,,,0.00,VWS V13.01,2013-08-28 09:32:00,
2013-08-28 05:34:00,76.2,70.7,19.46,WSW,258,0.0,0.0,83,0.00,,,0.00,VWS V13.01,2013-08-28 09:34:00,
2013-08-28 05:39:00,76.1,70.2,19.46,WSW,258,0.0,0.0,82,0.00,,,0.00,VWS V13.01,2013-08-28 09:39:00,
2013-08-28 05:44:00,76.0,70.5,19.46,WSW,258,0.0,0.0,83,0.00,,,0.00,VWS V13.01,2013-08-28 09:44:00,
2013-08-28 05:49:00,75.8,70.3,19.46,WSW,257,0.0,0.0,83,0.00,,,0.00,VWS V13.01,2013-08-28 09:49:00,
2013-08-28 05:54:00,75.6,70.1,19.46,WSW,257,0.0,0.0,83,0.00,,,0.00,VWS V13.01,2013-08-28 09:54:00,
2013-08-28 05:59:00,75.4,70.2,19.46,WSW,258,0.0,0.0,84,0.00,,,0.00,VWS V13.01,2013-08-28 09:59:00,
2013-08-28 06:04:00,75.3,70.1,19.46,WSW,258,0.0,0.0,84,0.00,,,0.00,VWS V13.01,2013-08-28 10:04:00,
2013-08-28 06:09:00,75.3,70.1,19.46,WSW,258,0.0,0.0,84,0.00,,,0.00,VWS V13.01,2013-08-28 10:09:00,
2013-08-28 06:14:00,75.3,70.1,19.46,WSW,258,0.0,0.0,84,0.00,,,0.00,VWS V13.01,2013-08-28 10:14:00,
2013-08-28 06:19:00,75.3,70.1,19.46,WSW,258,0.0,0.0,84,0.00,,,0.00,VWS V13.01,2013-08-28 10:19:00,
2013-08-28 06:24:00,75.3,70.1,19.46,WSW,257,0.0,0.0,84,0.00,,,0.00,VWS V13.01,2013-08-28 10:24:00,
2013-08-28 06:29:00,75.3,70.1,19.46,WSW,257,0.0,0.0,84,0.00,,,0.00,VWS V13.01,2013-08-28 10:29:00,
2013-08-28 06:34:00,75.2,70.0,19.46,WSW,257,0.0,0.0,84,0.00,,,0.00,VWS V13.01,2013-08-28 10:34:00,
2013-08-28 06:39:00,75.2,70.0,19.46,WSW,258,0.0,0.0,84,0.00,,,0.00,VWS V13.01,2013-08-28 10:39:00,
2013-08-28 06:44:00,75.3,70.1,19.46,WSW,258,0.0,1.0,84,0.00,,,0.00,VWS V13.01,2013-08-28 10:44:00,
2013-08-28 06:49:00,75.4,70.2,19.46,WSW,258,0.0,0.0,84,0.00,,,0.00,VWS V13.01,2013-08-28 10:49:00,
2013-08-28 06:54:00,75.5,70.3,19.46,WSW,258,0.0,0.0,84,0.00,,,0.00,VWS V13.01,2013-08-28 10:54:00,
2013-08-28 06:59:00,75.6,70.8,19.46,WSW,257,0.0,0.0,85,0.00,,,0.00,VWS V13.01,2013-08-28 10:59:00,
2013-08-28 07:04:00,75.7,70.5,19.46,WSW,258,0.0,1.0,84,0.00,,,0.00,VWS V13.01,2013-08-28 11:04:00,
2013-08-28 07:09:00,75.7,70.5,19.46,WSW,258,0.0,0.0,84,0.00,,,0.00,VWS V13.01,2013-08-28 11:09:00,
2013-08-28 07:14:00,75.9,70.7,19.46,West,259,2.0,4.0,84,0.00,,,0.00,VWS V13.01,2013-08-28 11:14:00,
2013-08-28 07:19:00,76.1,70.9,19.46,West,260,0.0,0.0,84,0.00,,,0.00,VWS V13.01,2013-08-28 11:19:00,
2013-08-28 07:24:00,76.1,71.3,16.91,West,259,0.0,1.0,85,0.00,,,0.00,VWS V13.01,2013-08-28 11:24:00,
2013-08-28 07:29:00,76.0,71.2,16.91,West,259,0.0,3.0,85,0.00,,,0.00,VWS V13.01,2013-08-28 11:29:00,
2013-08-28 07:34:00,75.9,71.1,16.91,West,260,0.0,0.0,85,0.00,,,0.00,VWS V13.01,2013-08-28 11:34:00,
2013-08-28 07:39:00,75.7,71.2,16.91,West,259,0.0,0.0,86,0.00,,,0.00,VWS V13.01,2013-08-28 11:39:00,
2013-08-28 07:44:00,75.4,70.9,16.91,West,259,0.0,0.0,86,0.00,,,0.00,VWS V13.01,2013-08-28 11:44:00,
2013-08-28 07:49:00,75.0,70.9,16.91,West,259,0.0,0.0,87,0.00,,,0.00,VWS V13.01,2013-08-28 11:49:00,
2013-08-28 07:54:00,74.9,70.8,16.91,West,259,0.0,0.0,87,0.00,,,0.00,VWS V13.01,2013-08-28 11:54:00,
2013-08-28 07:59:00,74.9,71.1,16.91,West,259,0.0,0.0,88,0.00,,,0.00,VWS V13.01,2013-08-28 11:59:00,
2013-08-28 08:04:00,74.8,71.3,16.91,West,259,0.0,0.0,89,0.00,,,0.00,VWS V13.01,2013-08-28 12:04:00,
2013-08-28 08:09:00,74.6,71.2,16.91,West,259,0.0,0.0,89,0.00,,,0.00,VWS V13.01,2013-08-28 12:09:00,
2013-08-28 08:14:00,74.6,71.2,16.91,West,259,0.0,0.0,89,0.00,,,0.00,VWS V13.01,2013-08-28 12:14:00,
2013-08-28 08:19:00,74.6,71.2,16.91,West,259,0.0,0.0,89,0.00,,,0.00,VWS V13.01,2013-08-28 12:19:00,
2013-08-28 08:24:00,74.8,71.3,16.91,West,259,0.0,0.0,89,0.00,,,0.00,VWS V13.01,2013-08-28 12:24:00,
2013-08-28 08:29:00,74.9,71.8,16.91,West,259,0.0,0.0,90,0.00,,,0.00,VWS V13.01,2013-08-28 12:29:00,
2013-08-28 08:34:00,75.1,71.6,16.91,West,259,0.0,0.0,89,0.00,,,0.00,VWS V13.01,2013-08-28 12:34:00,
2013-08-28 08:39:00,75.2,71.7,16.91,West,259,0.0,0.0,89,0.00,,,0.00,VWS V13.01,2013-08-28 12:39:00,
2013-08-28 08:44:00,75.3,71.8,16.91,West,259,0.0,1.0,89,0.00,,,0.00,VWS V13.01,2013-08-28 12:44:00,
2013-08-28 08:49:00,75.3,71.5,16.91,West,259,0.0,1.0,88,0.00,,,0.00,VWS V13.01,2013-08-28 12:49:00,
2013-08-28 08:54:00,75.5,71.7,16.91,West,259,0.0,1.0,88,0.00,,,0.00,VWS V13.01,2013-08-28 12:54:00,
2013-08-28 08:59:00,75.7,71.9,16.91,West,259,0.0,2.0,88,0.00,,,0.00,VWS V13.01,2013-08-28 12:59:00,
2013-08-28 09:04:00,75.8,72.0,16.91,WSW,245,0.0,3.0,88,0.00,,,0.00,VWS V13.01,2013-08-28 13:04:00,
2013-08-28 09:09:00,76.0,72.2,16.91,WSW,244,0.0,0.0,88,0.00,,,0.00,VWS V13.01,2013-08-28 13:09:00,
2013-08-28 09:14:00,76.0,72.2,16.91,WSW,245,1.0,1.0,88,0.00,,,0.00,VWS V13.01,2013-08-28 13:14:00,
2013-08-28 09:19:00,76.0,72.2,16.91,WSW,244,0.0,2.0,88,0.00,,,0.00,VWS V13.01,2013-08-28 13:19:00,
2013-08-28 09:24:00,76.1,72.6,16.91,SSW,198,3.0,4.0,89,0.00,,,0.00,VWS V13.01,2013-08-28 13:24:00,
2013-08-28 09:29:00,76.1,72.6,16.91,South,190,0.0,3.0,89,0.00,,,0.00,VWS V13.01,2013-08-28 13:29:00,
2013-08-28 09:34:00,76.0,72.5,16.91,SSW,196,0.0,1.0,89,0.00,,,0.00,VWS V13.01,2013-08-28 13:34:00,
2013-08-28 09:39:00,76.2,72.7,16.91,SSW,196,0.0,0.0,89,0.01,,,0.01,VWS V13.01,2013-08-28 13:39:00,
2013-08-28 09:44:00,76.4,72.9,16.91,SW,236,1.0,3.0,89,0.01,,,0.01,VWS V13.01,2013-08-28 13:44:00,
2013-08-28 09:49:00,76.5,73.0,16.91,WSW,238,0.0,3.0,89,0.01,,,0.01,VWS V13.01,2013-08-28 13:49:00,
2013-08-28 09:54:00,76.6,73.1,16.92,West,261,0.0,3.0,89,0.01,,,0.01,VWS V13.01,2013-08-28 13:54:00,
2013-08-28 09:59:00,76.6,73.1,16.91,West,261,0.0,1.0,89,0.01,,,0.01,VWS V13.01,2013-08-28 13:59:00,
2013-08-28 10:04:00,76.7,72.9,16.91,West,259,0.0,2.0,88,0.01,,,0.01,VWS V13.01,2013-08-28 14:04:00,
2013-08-28 10:09:00,76.9,73.1,16.91,West,272,1.0,3.0,88,0.01,,,0.01,VWS V13.01,2013-08-28 14:09:00,
2013-08-28 10:14:00,77.2,73.4,16.91,West,265,0.0,2.0,88,0.01,,,0.01,VWS V13.01,2013-08-28 14:14:00,
2013-08-28 10:19:00,77.5,73.7,19.42,West,267,0.0,3.0,88,0.01,,,0.01,VWS V13.01,2013-08-28 14:19:00,
2013-08-28 10:24:00,77.8,73.6,19.42,West,269,0.0,4.0,87,0.01,,,0.01,VWS V13.01,2013-08-28 14:24:00,
2013-08-28 10:29:00,77.9,73.7,19.42,West,270,0.0,2.0,87,0.01,,,0.01,VWS V13.01,2013-08-28 14:29:00,
2013-08-28 10:34:00,77.9,73.7,19.42,West,272,1.0,4.0,87,0.01,,,0.01,VWS V13.01,2013-08-28 14:34:00,
2013-08-28 10:39:00,77.8,73.3,19.42,West,268,0.0,2.0,86,0.00,,,0.01,VWS V13.01,2013-08-28 14:39:00,
2013-08-28 10:44:00,77.8,73.6,19.42,NW,304,0.0,3.0,87,0.00,,,0.01,VWS V13.01,2013-08-28 14:44:00,
2013-08-28 10:49:00,77.8,73.6,19.42,NW,304,0.0,1.0,87,0.01,,,0.02,VWS V13.01,2013-08-28 14:49:00,
2013-08-28 10:54:00,77.7,73.5,19.42,WNW,303,0.0,1.0,87,0.01,,,0.02,VWS V13.01,2013-08-28 14:54:00,
2013-08-28 10:59:00,77.7,73.9,19.42,WNW,302,0.0,2.0,88,0.01,,,0.02,VWS V13.01,2013-08-28 14:59:00,
2013-08-28 11:04:00,77.6,73.8,19.42,WSW,256,0.0,3.0,88,0.01,,,0.02,VWS V13.01,2013-08-28 15:04:00,
2013-08-28 11:09:00,77.5,73.7,19.42,South,184,0.0,4.0,88,0.01,,,0.02,VWS V13.01,2013-08-28 15:09:00,
2013-08-28 11:14:00,77.6,73.4,19.42,South,184,1.0,3.0,87,0.01,,,0.02,VWS V13.01,2013-08-28 15:14:00,
2013-08-28 11:19:00,77.6,73.1,19.42,South,184,0.0,4.0,86,0.01,,,0.02,VWS V13.01,2013-08-28 15:19:00,
2013-08-28 11:24:00,77.9,73.4,19.42,South,184,0.0,0.0,86,0.01,,,0.02,VWS V13.01,2013-08-28 15:24:00,
2013-08-28 11:29:00,78.3,73.8,19.42,SSE,155,0.0,0.0,86,0.01,,,0.02,VWS V13.01,2013-08-28 15:29:00,
2013-08-28 11:34:00,78.9,74.0,19.42,SSE,157,3.0,4.0,85,0.01,,,0.02,VWS V13.01,2013-08-28 15:34:00,
2013-08-28 11:39:00,79.6,74.7,19.42,SSE,155,2.0,3.0,85,0.01,,,0.02,VWS V13.01,2013-08-28 15:39:00,
2013-08-28 11:44:00,79.8,74.5,19.42,SSE,147,1.0,3.0,84,0.01,,,0.02,VWS V13.01,2013-08-28 15:44:00,
2013-08-28 11:49:00,79.8,74.2,16.91,SSE,149,3.0,4.0,83,0.01,,,0.02,VWS V13.01,2013-08-28 15:49:00,
2013-08-28 11:54:00,79.5,73.9,16.91,SE,134,3.0,4.0,83,0.00,,,0.02,VWS V13.01,2013-08-28 15:54:00,
2013-08-28 11:59:00,79.2,73.9,16.91,SSE,159,3.0,6.0,84,0.00,,,0.02,VWS V13.01,2013-08-28 15:59:00,
2013-08-28 12:04:00,78.7,73.8,16.91,SSE,155,3.0,4.0,85,0.00,,,0.02,VWS V13.01,2013-08-28 16:04:00,
2013-08-28 12:09:00,78.7,73.8,16.91,SSE,148,5.0,6.0,85,0.00,,,0.02,VWS V13.01,2013-08-28 16:09:00,
2013-08-28 12:14:00,78.7,73.1,16.91,South,180,9.0,9.0,83,0.00,,,0.02,VWS V13.01,2013-08-28 16:14:00,
2013-08-28 12:19:00,78.9,73.3,19.42,SSW,192,4.0,4.0,83,0.00,,,0.02,VWS V13.01,2013-08-28 16:19:00,
2013-08-28 12:24:00,79.1,73.5,19.42,South,175,4.0,6.0,83,0.00,,,0.02,VWS V13.01,2013-08-28 16:24:00,
2013-08-28 12:29:00,79.2,73.6,19.42,South,189,5.0,9.0,83,0.00,,,0.02,VWS V13.01,2013-08-28 16:29:00,
2013-08-28 12:34:00,79.2,73.2,19.42,SW,221,5.0,8.0,82,0.00,,,0.02,VWS V13.01,2013-08-28 16:34:00,
2013-08-28 12:39:00,79.3,73.7,19.42,SW,221,4.0,8.0,83,0.00,,,0.02,VWS V13.01,2013-08-28 16:39:00,
2013-08-28 12:44:00,79.5,73.5,19.42,SW,217,3.0,4.0,82,0.00,,,0.02,VWS V13.01,2013-08-28 16:44:00,
2013-08-28 12:49:00,79.5,73.5,19.42,South,190,5.0,7.0,82,0.00,,,0.02,VWS V13.01,2013-08-28 16:49:00,
2013-08-28 12:54:00,79.3,73.3,19.42,SW,229,1.0,9.0,82,0.00,,,0.02,VWS V13.01,2013-08-28 16:54:00,
2013-08-28 12:59:00,79.0,73.0,19.42,South,184,3.0,6.0,82,0.00,,,0.02,VWS V13.01,2013-08-28 16:59:00,
2013-08-28 13:04:00,78.9,73.3,19.42,SSE,165,3.0,6.0,83,0.00,,,0.02,VWS V13.01,2013-08-28 17:04:00,
2013-08-28 13:09:00,78.8,73.2,19.42,South,188,3.0,5.0,83,0.00,,,0.02,VWS V13.01,2013-08-28 17:09:00,
2013-08-28 13:14:00,78.7,73.1,19.42,SSW,197,1.0,3.0,83,0.00,,,0.02,VWS V13.01,2013-08-28 17:14:00,
2013-08-28 13:19:00,78.6,73.4,19.42,SSW,202,3.0,3.0,84,0.01,,,0.03,VWS V13.01,2013-08-28 17:19:00,
2013-08-28 13:24:00,78.3,73.4,19.42,SSW,207,1.0,2.0,85,0.01,,,0.03,VWS V13.01,2013-08-28 17:24:00,
2013-08-28 13:29:00,77.9,73.0,19.42,South,185,1.0,4.0,85,0.01,,,0.03,VWS V13.01,2013-08-28 17:29:00,
2013-08-28 13:34:00,77.4,72.5,19.42,South,175,5.0,6.0,85,0.01,,,0.03,VWS V13.01,2013-08-28 17:34:00,
2013-08-28 13:39:00,76.9,72.4,19.42,SW,236,4.0,11.0,86,0.01,,,0.03,VWS V13.01,2013-08-28 17:39:00,
2013-08-28 13:44:00,76.6,72.1,19.42,SW,226,3.0,6.0,86,0.02,,,0.04,VWS V13.01,2013-08-28 17:44:00,
2013-08-28 13:49:00,76.4,72.2,19.42,South,176,2.0,5.0,87,0.02,,,0.04,VWS V13.01,2013-08-28 17:49:00,
2013-08-28 13:54:00,76.0,72.2,19.42,SSW,195,2.0,6.0,88,0.03,,,0.05,VWS V13.01,2013-08-28 17:54:00,
2013-08-28 13:59:00,75.7,72.2,19.42,South,178,1.0,5.0,89,0.03,,,0.05,VWS V13.01,2013-08-28 17:59:00,
2013-08-28 14:04:00,75.6,72.1,19.42,South,182,1.0,3.0,89,0.04,,,0.06,VWS V13.01,2013-08-28 18:04:00,
2013-08-28 14:09:00,75.5,72.4,19.42,South,180,0.0,2.0,90,0.04,,,0.06,VWS V13.01,2013-08-28 18:09:00,
2013-08-28 14:14:00,75.5,72.4,19.42,South,171,0.0,3.0,90,0.04,,,0.06,VWS V13.01,2013-08-28 18:14:00,
2013-08-28 14:19:00,75.5,72.4,19.42,South,172,0.0,1.0,90,0.03,,,0.06,VWS V13.01,2013-08-28 18:19:00,
2013-08-28 14:24:00,75.4,72.3,19.42,South,175,1.0,1.0,90,0.03,,,0.06,VWS V13.01,2013-08-28 18:24:00,
2013-08-28 14:29:00,75.5,72.4,19.42,South,175,0.0,1.0,90,0.03,,,0.06,VWS V13.01,2013-08-28 18:29:00,
2013-08-28 14:34:00,75.6,72.5,19.42,South,178,4.0,4.0,90,0.03,,,0.06,VWS V13.01,2013-08-28 18:34:00,
2013-08-28 14:39:00,75.7,72.6,19.42,SW,215,0.0,7.0,90,0.03,,,0.06,VWS V13.01,2013-08-28 18:39:00,
2013-08-28 14:44:00,75.8,72.7,19.42,South,176,2.0,4.0,90,0.02,,,0.06,VWS V13.01,2013-08-28 18:44:00,
2013-08-28 14:49:00,75.8,72.7,19.42,South,186,0.0,4.0,90,0.02,,,0.06,VWS V13.01,2013-08-28 18:49:00,
2013-08-28 14:54:00,75.9,72.8,19.42,SSW,202,0.0,4.0,90,0.01,,,0.06,VWS V13.01,2013-08-28 18:54:00,
2013-08-28 14:59:00,76.0,72.9,19.42,SSW,202,0.0,1.0,90,0.01,,,0.06,VWS V13.01,2013-08-28 18:59:00,
2013-08-28 15:04:00,75.9,72.8,19.42,SSW,202,1.0,2.0,90,0.02,,,0.07,VWS V13.01,2013-08-28 19:04:00,
2013-08-28 15:09:00,75.9,72.8,19.42,SSW,196,0.0,2.0,90,0.01,,,0.07,VWS V13.01,2013-08-28 19:09:00,
2013-08-28 15:14:00,76.0,72.9,19.42,SSW,196,3.0,3.0,90,0.01,,,0.07,VWS V13.01,2013-08-28 19:14:00,
2013-08-28 15:19:00,75.9,72.8,19.42,SW,226,3.0,3.0,90,0.02,,,0.08,VWS V13.01,2013-08-28 19:19:00,
2013-08-28 15:24:00,75.8,72.7,19.42,SSW,192,0.0,2.0,90,0.02,,,0.09,VWS V13.01,2013-08-28 19:24:00,
2013-08-28 15:29:00,75.6,72.5,19.42,South,188,0.0,1.0,90,0.03,,,0.09,VWS V13.01,2013-08-28 19:29:00,
2013-08-28 15:34:00,75.4,72.3,19.42,SE,130,0.0,2.0,90,0.04,,,0.10,VWS V13.01,2013-08-28 19:34:00,
2013-08-28 15:39:00,75.4,72.6,19.42,SE,132,0.0,3.0,91,0.04,,,0.10,VWS V13.01,2013-08-28 19:39:00,
2013-08-28 15:44:00,75.4,72.6,19.42,ESE,118,2.0,2.0,91,0.05,,,0.11,VWS V13.01,2013-08-28 19:44:00,
2013-08-28 15:49:00,75.3,72.5,19.42,ESE,120,2.0,5.0,91,0.06,,,0.12,VWS V13.01,2013-08-28 19:49:00,
2013-08-28 15:54:00,75.2,72.7,19.42,ESE,107,1.0,2.0,92,0.07,,,0.13,VWS V13.01,2013-08-28 19:54:00,
2013-08-28 15:59:00,75.3,72.8,17.42,SSE,157,4.0,4.0,92,0.07,,,0.13,VWS V13.01,2013-08-28 19:59:00,
2013-08-28 16:04:00,75.2,72.7,16.92,ESE,122,3.0,5.0,92,0.06,,,0.13,VWS V13.01,2013-08-28 20:04:00,
2013-08-28 16:09:00,75.0,72.5,16.92,SSE,160,1.0,6.0,92,0.06,,,0.13,VWS V13.01,2013-08-28 20:09:00,
2013-08-28 16:14:00,74.9,72.4,16.92,SE,133,1.0,3.0,92,0.06,,,0.13,VWS V13.01,2013-08-28 20:14:00,
2013-08-28 16:19:00,74.8,72.0,16.92,SW,225,1.0,3.0,91,0.05,,,0.13,VWS V13.01,2013-08-28 20:19:00,
2013-08-28 16:24:00,74.7,71.9,16.92,SW,217,1.0,3.0,91,0.05,,,0.13,VWS V13.01,2013-08-28 20:24:00,
2013-08-28 16:29:00,74.7,71.9,16.92,SE,141,0.0,5.0,91,0.04,,,0.13,VWS V13.01,2013-08-28 20:29:00,
2013-08-28 16:34:00,74.7,71.9,16.92,SE,142,0.0,0.0,91,0.03,,,0.13,VWS V13.01,2013-08-28 20:34:00,
2013-08-28 16:39:00,74.7,71.9,16.92,SE,142,0.0,1.0,91,0.03,,,0.13,VWS V13.01,2013-08-28 20:39:00,
2013-08-28 16:44:00,75.0,72.2,16.92,SE,140,0.0,3.0,91,0.02,,,0.13,VWS V13.01,2013-08-28 20:44:00,
2013-08-28 16:49:00,75.1,72.3,16.92,SSE,153,0.0,2.0,91,0.01,,,0.13,VWS V13.01,2013-08-28 20:49:00,
2013-08-28 16:54:00,75.2,72.4,16.92,SSE,153,0.0,1.0,91,0.01,,,0.13,VWS V13.01,2013-08-28 20:54:00,
2013-08-28 16:59:00,75.2,72.4,16.92,SSE,159,1.0,3.0,91,0.00,,,0.13,VWS V13.01,2013-08-28 20:59:00,
2013-08-28 17:04:00,75.2,72.4,16.92,SSE,150,1.0,2.0,91,0.00,,,0.13,VWS V13.01,2013-08-28 21:04:00,
2013-08-28 17:09:00,75.3,72.5,16.92,SSE,150,0.0,0.0,91,0.00,,,0.13,VWS V13.01,2013-08-28 21:09:00,
2013-08-28 17:14:00,75.3,72.5,16.92,SSE,150,0.0,0.0,91,0.00,,,0.13,VWS V13.01,2013-08-28 21:14:00,
2013-08-28 17:19:00,75.3,72.5,16.92,SSE,150,0.0,0.0,91,0.00,,,0.13,VWS V13.01,2013-08-28 21:19:00,
2013-08-28 17:24:00,75.3,72.5,16.92,SSE,150,0.0,0.0,91,0.00,,,0.13,VWS V13.01,2013-08-28 21:24:00,
2013-08-28 17:29:00,75.3,72.5,16.92,SSE,150,0.0,0.0,91,0.00,,,0.13,VWS V13.01,2013-08-28 21:29:00,
2013-08-28 17:34:00,75.4,72.6,16.92,SSE,150,0.0,0.0,91,0.00,,,0.13,VWS V13.01,2013-08-28 21:34:00,
2013-08-28 17:39:00,75.4,72.6,16.92,SSE,150,0.0,1.0,91,0.00,,,0.13,VWS V13.01,2013-08-28 21:39:00,
2013-08-28 17:44:00,75.3,72.5,16.92,SSE,150,0.0,1.0,91,0.00,,,0.13,VWS V13.01,2013-08-28 21:44:00,
2013-08-28 17:49:00,75.3,72.5,16.92,SSE,150,0.0,0.0,91,0.00,,,0.13,VWS V13.01,2013-08-28 21:49:00,
2013-08-28 17:54:00,75.4,72.6,16.92,SSE,150,0.0,1.0,91,0.00,,,0.13,VWS V13.01,2013-08-28 21:54:00,
2013-08-28 17:59:00,75.3,72.5,16.92,SSE,150,0.0,0.0,91,0.00,,,0.13,VWS V13.01,2013-08-28 21:59:00,
2013-08-28 18:04:00,75.5,72.7,16.92,ESE,105,2.0,3.0,91,0.00,,,0.13,VWS V13.01,2013-08-28 22:04:00,
2013-08-28 18:09:00,75.5,72.7,16.92,ESE,103,0.0,1.0,91,0.00,,,0.13,VWS V13.01,2013-08-28 22:09:00,
2013-08-28 18:14:00,75.5,72.7,16.92,ESE,103,0.0,3.0,91,0.00,,,0.13,VWS V13.01,2013-08-28 22:14:00,
2013-08-28 18:19:00,75.4,72.6,16.92,ESE,103,0.0,1.0,91,0.00,,,0.13,VWS V13.01,2013-08-28 22:19:00,
2013-08-28 18:24:00,75.4,72.6,16.17,ENE,72,0.0,3.0,91,0.00,,,0.13,VWS V13.01,2013-08-28 22:24:00,
2013-08-28 18:29:00,75.5,72.7,16.17,ENE,73,1.0,1.0,91,0.00,,,0.13,VWS V13.01,2013-08-28 22:29:00,
2013-08-28 18:34:00,75.3,72.5,16.92,ENE,72,0.0,1.0,91,0.00,,,0.13,VWS V13.01,2013-08-28 22:34:00,
2013-08-28 18:39:00,75.3,72.2,16.92,ENE,74,0.0,1.0,90,0.00,,,0.13,VWS V13.01,2013-08-28 22:39:00,
2013-08-28 18:44:00,75.5,72.7,19.19,ENE,73,0.0,1.0,91,0.00,,,0.13,VWS V13.01,2013-08-28 22:44:00,
2013-08-28 18:49:00,75.5,72.7,19.19,ENE,73,0.0,1.0,91,0.00,,,0.13,VWS V13.01,2013-08-28 22:49:00,
2013-08-28 18:54:00,75.4,72.6,19.19,ENE,74,0.0,2.0,91,0.00,,,0.13,VWS V13.01,2013-08-28 22:54:00,
2013-08-28 18:59:00,75.5,72.7,19.19,East,80,1.0,2.0,91,0.00,,,0.13,VWS V13.01,2013-08-28 22:59:00,
2013-08-28 19:04:00,75.4,72.6,19.19,East,80,0.0,0.0,91,0.00,,,0.13,VWS V13.01,2013-08-28 23:04:00,
2013-08-28 19:09:00,75.5,72.7,19.19,East,79,0.0,1.0,91,0.00,,,0.13,VWS V13.01,2013-08-28 23:09:00,
2013-08-28 19:14:00,75.5,72.7,19.19,East,80,0.0,0.0,91,0.00,,,0.13,VWS V13.01,2013-08-28 23:14:00,
2013-08-28 19:19:00,75.3,72.5,19.19,East,80,0.0,0.0,91,0.00,,,0.13,VWS V13.01,2013-08-28 23:19:00,
2013-08-28 19:24:00,75.4,72.6,19.19,East,79,0.0,0.0,91,0.00,,,0.13,VWS V13.01,2013-08-28 23:24:00,
2013-08-28 19:29:00,75.3,72.5,19.19,East,79,0.0,2.0,91,0.00,,,0.13,VWS V13.01,2013-08-28 23:29:00,
2013-08-28 19:34:00,75.3,72.8,19.19,ENE,78,0.0,2.0,92,0.00,,,0.13,VWS V13.01,2013-08-28 23:34:00,
2013-08-28 19:39:00,75.3,72.8,19.19,ENE,78,0.0,0.0,92,0.00,,,0.13,VWS V13.01,2013-08-28 23:39:00,
2013-08-28 19:44:00,75.1,72.6,19.19,ENE,78,0.0,2.0,92,0.00,,,0.13,VWS V13.01,2013-08-28 23:44:00,
2013-08-28 19:49:00,75.0,72.5,19.19,East,79,0.0,0.0,92,0.00,,,0.13,VWS V13.01,2013-08-28 23:49:00,
2013-08-28 19:54:00,74.9,72.4,19.19,East,79,0.0,0.0,92,0.00,,,0.13,VWS V13.01,2013-08-28 23:54:00,
2013-08-28 19:59:00,74.8,72.3,19.19,East,79,0.0,1.0,92,0.00,,,0.13,VWS V13.01,2013-08-28 23:59:00,
2013-08-28 20:04:00,74.9,72.4,19.19,East,79,0.0,0.0,92,0.00,,,0.13,VWS V13.01,2013-08-29 00:04:00,
2013-08-28 20:09:00,74.9,72.4,19.19,East,79,0.0,0.0,92,0.00,,,0.13,VWS V13.01,2013-08-29 00:09:00,
2013-08-28 20:14:00,74.8,72.3,19.19,East,79,0.0,0.0,92,0.00,,,0.13,VWS V13.01,2013-08-29 00:14:00,
2013-08-28 20:19:00,74.7,72.2,19.19,ENE,78,0.0,0.0,92,0.00,,,0.13,VWS V13.01,2013-08-29 00:19:00,
2013-08-28 20:24:00,74.5,72.0,19.19,East,79,0.0,1.0,92,0.00,,,0.13,VWS V13.01,2013-08-29 00:24:00,
2013-08-28 20:29:00,74.4,71.9,19.19,East,79,0.0,0.0,92,0.00,,,0.13,VWS V13.01,2013-08-29 00:29:00,
2013-08-28 20:34:00,74.6,72.1,19.19,ENE,78,0.0,0.0,92,0.00,,,0.13,VWS V13.01,2013-08-29 00:34:00,
2013-08-28 20:39:00,74.8,72.6,19.19,ENE,78,0.0,0.0,93,0.00,,,0.13,VWS V13.01,2013-08-29 00:39:00,
2013-08-28 20:44:00,74.8,72.6,19.19,ENE,78,0.0,0.0,93,0.00,,,0.13,VWS V13.01,2013-08-29 00:44:00,
2013-08-28 20:49:00,74.9,72.7,19.19,East,79,0.0,0.0,93,0.00,,,0.13,VWS V13.01,2013-08-29 00:49:00,
2013-08-28 20:54:00,75.0,72.8,19.19,East,79,0.0,1.0,93,0.00,,,0.13,VWS V13.01,2013-08-29 00:54:00,
2013-08-28 20:59:00,74.9,72.7,19.19,East,79,0.0,0.0,93,0.00,,,0.13,VWS V13.01,2013-08-29 00:59:00,
2013-08-28 21:04:00,74.9,72.7,19.19,East,79,0.0,0.0,93,0.00,,,0.13,VWS V13.01,2013-08-29 01:04:00,
2013-08-28 21:09:00,74.9,72.7,19.19,ENE,78,1.0,1.0,93,0.00,,,0.13,VWS V13.01,2013-08-29 01:09:00,
2013-08-28 21:14:00,74.8,72.6,19.19,ENE,78,0.0,2.0,93,0.00,,,0.13,VWS V13.01,2013-08-29 01:14:00,
2013-08-28 21:19:00,74.8,72.6,19.19,ENE,78,0.0,0.0,93,0.00,,,0.13,VWS V13.01,2013-08-29 01:19:00,
2013-08-28 21:25:00,74.6,72.1,19.19,ENE,78,0.0,1.0,92,0.00,,,0.13,VWS V13.01,2013-08-29 01:25:00,
2013-08-28 21:29:00,74.7,72.6,19.19,ENE,78,0.0,1.0,93,0.00,,,0.13,VWS V13.01,2013-08-29 01:29:00,
2013-08-28 21:35:00,74.6,72.1,19.19,ENE,78,0.0,0.0,92,0.00,,,0.13,VWS V13.01,2013-08-29 01:35:00,
2013-08-28 21:40:00,74.6,72.4,19.19,ENE,78,0.0,0.0,93,0.00,,,0.13,VWS V13.01,2013-08-29 01:40:00,
2013-08-28 21:44:00,74.5,72.0,19.19,ENE,78,0.0,0.0,92,0.00,,,0.13,VWS V13.01,2013-08-29 01:44:00,
2013-08-28 21:49:00,74.5,72.3,19.19,ENE,78,0.0,0.0,93,0.00,,,0.13,VWS V13.01,2013-08-29 01:49:00,
2013-08-28 21:54:00,74.5,72.0,19.19,ENE,78,0.0,0.0,92,0.00,,,0.13,VWS V13.01,2013-08-29 01:54:00,
2013-08-28 21:59:00,74.6,72.4,19.19,ENE,78,0.0,0.0,93,0.00,,,0.13,VWS V13.01,2013-08-29 01:59:00,
2013-08-28 22:04:00,74.6,72.4,19.19,ENE,78,0.0,0.0,93,0.00,,,0.13,VWS V13.01,2013-08-29 02:04:00,
2013-08-28 22:09:00,74.7,72.2,19.19,ENE,78,0.0,0.0,92,0.00,,,0.13,VWS V13.01,2013-08-29 02:09:00,
2013-08-28 22:14:00,74.6,72.1,19.19,ENE,78,0.0,0.0,92,0.00,,,0.13,VWS V13.01,2013-08-29 02:14:00,
2013-08-28 22:19:00,74.6,72.4,19.19,ENE,78,0.0,0.0,93,0.00,,,0.13,VWS V13.01,2013-08-29 02:19:00,
2013-08-28 22:24:00,74.5,72.3,19.19,ENE,78,0.0,0.0,93,0.00,,,0.13,VWS V13.01,2013-08-29 02:24:00,
2013-08-28 22:29:00,74.4,72.2,19.19,ENE,78,0.0,0.0,93,0.00,,,0.13,VWS V13.01,2013-08-29 02:29:00,
2013-08-28 22:34:00,74.4,72.2,19.19,ENE,78,0.0,0.0,93,0.00,,,0.13,VWS V13.01,2013-08-29 02:34:00,
2013-08-28 22:39:00,74.5,72.3,19.19,ENE,78,0.0,0.0,93,0.00,,,0.13,VWS V13.01,2013-08-29 02:39:00,
2013-08-28 22:44:00,74.5,72.3,19.19,ENE,78,0.0,0.0,93,0.00,,,0.13,VWS V13.01,2013-08-29 02:44:00,
2013-08-28 22:49:00,74.5,72.3,19.19,ENE,78,0.0,0.0,93,0.00,,,0.13,VWS V13.01,2013-08-29 02:49:00,
2013-08-28 22:54:00,74.4,72.2,19.19,ENE,78,0.0,0.0,93,0.00,,,0.13,VWS V13.01,2013-08-29 02:54:00,
2013-08-28 22:59:00,74.4,72.2,19.19,ENE,78,0.0,0.0,93,0.00,,,0.13,VWS V13.01,2013-08-29 02:59:00,
2013-08-28 23:04:00,74.4,72.2,19.19,ENE,78,0.0,0.0,93,0.00,,,0.13,VWS V13.01,2013-08-29 03:04:00,
2013-08-28 23:10:00,74.4,72.2,19.19,ENE,78,0.0,0.0,93,0.00,,,0.13,VWS V13.01,2013-08-29 03:10:00,
2013-08-28 23:15:00,74.5,72.3,19.19,ENE,78,0.0,0.0,93,0.00,,,0.13,VWS V13.01,2013-08-29 03:15:00,
2013-08-28 23:20:00,74.3,72.2,19.19,ENE,78,0.0,0.0,93,0.00,,,0.13,VWS V13.01,2013-08-29 03:20:00,
2013-08-28 23:25:00,74.2,72.1,19.19,ENE,78,0.0,0.0,93,0.00,,,0.13,VWS V13.01,2013-08-29 03:25:00,
2013-08-28 23:29:00,74.3,72.2,19.19,ENE,78,0.0,0.0,93,0.00,,,0.13,VWS V13.01,2013-08-29 03:29:00,
2013-08-28 23:35:00,74.1,71.9,19.19,ENE,78,0.0,0.0,93,0.00,,,0.13,VWS V13.01,2013-08-29 03:35:00,
2013-08-28 23:40:00,74.1,71.9,19.19,ENE,78,0.0,0.0,93,0.00,,,0.13,VWS V13.01,2013-08-29 03:40:00,
2013-08-28 23:45:00,74.0,71.8,19.19,ENE,78,0.0,0.0,93,0.00,,,0.13,VWS V13.01,2013-08-29 03:45:00,
2013-08-28 23:50:00,73.8,71.7,19.19,ENE,78,0.0,0.0,93,0.00,,,0.13,VWS V13.01,2013-08-29 03:50:00,
2013-08-28 23:55:00,73.6,71.5,19.19,ENE,78,0.0,0.0,93,0.00,,,0.13,VWS V13.01,2013-08-29 03:55:00,
2013-08-28 23:59:00,73.6,71.5,19.19,ENE,78,0.0,0.0,93,0.00,,,0.00,VWS V13.01,2013-08-29 03:59:00,